Wind_Speed
15 16 19 20 22 21 20 19 18 17 15 14 14 13 12 11 11 11 11 11 10 9 9 9 10 9 7 5 4 4 4 5 5 6 9 8 8 7 5 6 6 8 8 8 8 7 7 7 7 9 11 7 4 5 6 5 5 3 2 3 2 2 0 3 4 5 5 4 6 11 12 8 5 6 8 7 6 9 8 7 7 6 6 4 3 7 8 10
15 16 17 19 21 21 20 19 18 16 15 14 14 14 13 12 12 11 11 10 10 9 9 9 10 9 7 5 4 4 4 5 5 7 10 7 7 8 6 6 8 9 9 9 9 8 7 5 5 8 10 7 4 5 5 5 5 3 2 3 3 3 1 4 2 6 6 8 10 13 13 8 7 11 10 5 5 8 7 6 8 7 8 7 8 10 10 10
16 17 17 18 19 20 20 19 18 17 16 15 14 14 14 13 12 11 11 10 9 9 9 9 9 9 7 5 4 4 4 5 5 8 10 7 6 8 7 8 9 8 9 10 9 8 5 4 7 9 8 7 6 6 5 4 5 2 3 3 4 5 2 7 6 6 7 15 13 12 12 6 8 13 11 6 5 7 7 8 9 9 11 12 12 13 12 12
16 17 17 18 19 21 21 20 18 17 16 15 14 14 13 13 12 11 10 10 9 9 9 9 9 9 7 5 4 4 4 3 4 7 8 6 6 7 8 9 10 8 8 9 8 6 4 5 10 10 7 6 6 6 5 5 5 1 3 4 4 4 3 5 6 8 8 16 15 12 9 6 9 12 10 8 5 3 10 14 12 11 14 15 16 16 14 13
15 17 17 18 19 20 20 20 18 17 16 15 14 13 13 12 11 11 10 9 9 8 8 9 9 9 7 5 4 5 5 2 2 7 7 6 7 8 9 9 9 8 8 8 8 7 6 7 8 8 5 4 6 4 4 7 6 2 2 4 2 3 3 1 3 7 8 12 13 11 7 7 10 10 9 9 6 3 9 15 14 13 14 14 16 17 16 15
15 17 18 17 18 18 18 18 18 17 16 15 14 13 12 12 11 10 10 9 8 8 8 8 9 9 8 6 4 5 6 2 1 5 8 8 9 9 9 9 9 8 7 7 7 8 8 6 4 5 3 2 6 5 4 9 7 2 1 4 6 3 5 2 3 6 7 10 10 7 5 8 9 6 9 10 7 5 5 6 8 11 14 15 14 16 17 16
16 17 18 17 17 17 17 17 17 16 15 15 14 13 12 11 11 10 9 9 8 8 8 9 8 9 8 6 5 5 8 5 2 3 9 9 9 10 10 9 8 8 7 6 7 8 6 4 4 5 2 1 5 5 5 8 7 4 1 1 5 4 6 3 4 6 6 8 7 6 6 7 7 4 6 10 11 9 6 3 3 4 9 15 16 15 15 14
17 17 18 17 17 17 17 17 16 16 15 14 14 13 12 11 11 10 9 9 9 9 9 9 9 9 8 7 6 5 8 7 2 3 9 9 9 11 10 9 9 8 8 8 8 7 4 3 5 6 1 1 6 6 6 5 2 3 2 2 5 4 4 3 4 6 5 5 5 5 4 4 4 3 4 10 12 13 12 11 9 5 6 14 16 14 14 13
16 17 18 18 18 18 18 17 16 16 15 14 13 12 11 10 10 10 9 9 9 9 9 10 9 10 9 8 6 3 6 7 4 5 8 9 10 11 10 10 10 9 9 9 8 6 3 1 2 4 2 1 6 6 5 5 0 2 5 5 6 5 5 5 4 5 5 3 3 3 2 3 3 3 6 12 13 15 15 13 12 9 9 13 14 14 14 13
16 18 18 19 18 18 18 18 17 16 15 14 13 12 11 10 10 9 10 10 10 10 10 10 10 11 10 8 6 3 4 6 6 6 8 10 10 10 10 10 9 9 9 9 8 7 4 2 2 1 1 1 5 4 3 5 1 5 10 8 7 6 5 4 3 5 6 3 3 3 1 3 3 1 5 10 9 12 17 15 13 13 13 14 15 15 15 14
16 18 18 19 19 18 18 18 17 16 15 14 13 12 11 10 10 10 10 10 10 11 11 11 11 11 10 8 7 5 2 4 7 7 8 10 10 9 9 9 9 9 8 8 10 8 6 3 1 2 2 2 4 3 4 5 5 11 13 7 4 4 2 3 4 5 5 3 3 2 1 1 3 2 11 14 8 8 15 18 17 16 15 15 16 17 17 18
16 18 19 19 19 18 18 18 17 17 15 14 13 12 11 10 10 10 10 10 11 11 11 11 12 11 10 9 11 8 2 3 7 8 10 11 11 10 9 9 9 9 7 8 9 8 7 4 1 2 3 4 3 3 4 5 7 11 9 4 1 3 2 5 5 6 5 2 3 2 2 3 3 8 17 15 11 10 12 17 19 18 17 17 17 18 19 20
17 18 18 19 19 18 18 17 17 16 16 15 13 12 11 11 11 11 11 11 11 11 12 12 12 12 9 7 9 9 5 5 9 10 13 13 11 10 9 8 8 8 7 7 7 7 7 5 4 4 5 5 3 4 5 5 7 6 3 4 2 5 4 7 5 5 5 2 3 3 2 6 5 15 19 13 13 14 13 17 19 19 18 18 18 19 19 20
17 18 18 19 18 18 17 16 16 15 15 14 13 12 11 11 11 12 11 11 12 12 12 12 12 12 10 5 4 8 7 7 10 12 14 13 12 10 9 8 7 8 6 5 6 7 7 7 5 5 6 7 7 8 5 4 4 2 1 3 3 2 4 6 3 6 4 2 3 4 1 7 7 14 16 10 14 17 17 18 18 18 17 17 17 17 18 19
16 18 18 18 17 17 16 16 16 15 14 13 13 12 11 11 12 12 12 12 12 12 12 13 13 10 8 5 3 6 9 9 11 13 14 13 12 10 9 8 7 7 6 5 7 7 8 9 6 6 7 9 9 7 3 3 2 2 2 3 3 3 3 6 1 7 5 3 4 4 1 6 8 10 7 5 14 15 16 17 16 17 16 17 18 18 19 19
15 17 18 18 17 16 15 15 15 14 14 13 12 12 12 12 12 13 13 13 13 13 12 11 12 10 5 4 5 8 11 12 13 14 15 13 12 11 9 7 7 8 7 7 7 8 9 8 6 7 8 6 6 5 4 4 4 3 3 2 3 2 2 4 2 3 4 2 2 2 2 4 4 4 2 5 12 12 14 14 15 16 16 17 19 20 21 20
14 16 17 17 17 15 14 14 13 13 13 12 12 11 12 11 12 12 12 13 13 12 12 10 11 10 4 3 6 9 12 13 14 15 15 13 11 10 9 7 8 8 8 8 8 9 9 7 7 6 3 2 3 5 5 3 3 3 1 1 4 3 3 2 3 2 3 4 1 2 3 6 7 8 8 5 8 10 12 14 16 16 17 17 18 20 22 22
13 14 16 16 16 15 14 13 13 12 12 12 12 11 12 12 12 12 13 14 13 13 11 9 11 7 5 7 8 9 13 14 15 17 15 13 11 11 11 8 8 9 9 8 7 7 6 4 5 3 2 2 2 5 4 2 4 3 3 2 3 2 3 3 3 2 2 3 2 2 4 9 10 13 18 16 13 14 17 20 21 22 22 20 19 21 23 24
13 13 14 15 14 14 14 13 13 12 13 13 13 13 13 13 12 12 13 15 14 9 5 10 14 5 2 11 12 10 14 15 15 17 16 14 12 11 11 10 10 9 7 5 3 4 5 4 4 3 1 2 3 5 6 7 7 6 6 4 2 2 2 4 2 2 1 2 3 5 6 9 9 11 16 20 20 19 22 24 25 26 25 25 24 25 26 28
12 12 12 13 14 14 14 14 13 13 15 15 17 17 13 12 9 6 11 16 14 6 1 12 18 4 2 11 17 13 13 14 15 18 17 15 13 12 11 10 9 5 3 4 3 2 4 4 2 4 5 6 7 7 7 5 6 6 5 3 2 3 1 3 2 4 2 2 5 6 6 9 9 9 14 21 20 16 20 23 26 28 27 28 27 28 30 32
12 11 11 12 13 14 14 14 14 15 16 17 20 16 10 12 7 3 10 13 13 6 2 10 18 6 1 8 17 15 13 13 15 19 18 16 15 12 10 8 6 2 1 4 4 1 3 3 4 7 7 8 6 6 6 4 5 5 5 5 2 1 1 2 2 5 3 2 4 4 5 11 10 9 14 19 15 14 20 22 25 29 28 29 29 31 33 33
13 11 11 11 12 13 14 15 15 16 17 18 20 13 8 13 9 8 12 7 11 11 1 9 16 9 3 7 14 15 11 9 10 17 18 18 16 10 9 6 4 3 2 5 5 3 3 2 7 9 7 5 2 4 8 6 6 5 4 4 2 1 2 2 3 4 2 2 4 5 6 11 11 9 14 19 17 19 27 27 28 30 28 30 32 34 35 34
11 11 11 10 11 12 13 15 15 16 19 21 19 11 8 13 10 11 13 4 7 14 8 9 12 11 9 10 15 15 11 7 8 16 19 19 17 11 9 7 4 4 3 4 6 4 2 5 8 7 6 7 4 4 8 6 4 4 4 5 1 3 1 2 4 4 1 1 2 4 6 10 10 6 11 19 22 23 28 29 30 31 30 32 34 35 35 34
8 11 11 10 10 11 12 14 15 16 19 22 17 9 9 12 10 12 13 3 2 10 12 11 10 12 12 10 14 14 10 8 8 16 21 20 17 10 9 8 5 4 3 5 8 6 4 6 4 1 4 7 5 3 6 5 1 1 3 6 3 2 2 2 2 3 3 3 3 4 6 7 6 5 6 11 11 14 19 20 24 28 28 30 33 33 33 32
9 8 11 12 10 10 12 12 13 14 18 22 16 9 8 10 9 12 11 2 2 5 9 12 9 10 13 10 14 13 8 7 8 16 22 21 17 9 6 8 5 3 6 7 8 5 5 4 1 2 3 5 6 3 3 6 2 3 1 5 6 5 5 2 3 5 5 5 4 4 4 6 5 6 7 8 6 8 11 10 15 22 22 25 29 30 29 29
12 10 10 13 11 10 11 11 11 13 15 19 17 9 8 8 8 11 8 4 2 2 5 11 9 10 13 12 15 13 6 4 8 17 23 19 16 10 4 5 3 3 7 5 4 2 2 1 2 4 4 5 6 2 3 5 5 1 3 3 5 7 7 4 3 4 1 3 3 4 3 5 8 7 8 6 6 9 10 8 11 17 19 23 28 27 25 25
12 12 11 12 12 11 11 11 12 12 11 15 18 12 7 8 9 10 6 5 3 5 6 8 9 10 12 13 18 12 3 6 9 14 22 17 14 10 5 3 2 2 4 4 2 1 1 2 4 5 6 6 5 2 3 5 7 2 4 3 5 7 6 5 6 3 2 2 4 4 4 2 7 7 4 2 6 9 10 10 12 17 21 24 26 26 23 21
9 12 13 13 12 11 11 11 12 12 10 11 16 14 9 9 10 8 6 3 2 5 5 7 8 10 13 16 19 10 7 13 8 10 21 17 12 9 4 5 5 4 2 6 4 3 0 4 3 5 6 3 3 3 3 5 6 4 5 4 5 6 6 5 7 3 1 2 5 5 2 2 7 7 3 4 5 8 10 10 11 17 22 23 24 23 19 15
11 10 12 13 13 12 12 12 12 12 10 10 14 15 11 11 10 6 4 1 3 3 3 8 9 10 15 15 12 9 10 9 4 10 20 15 11 7 3 4 6 4 2 6 5 3 1 3 4 5 5 3 4 2 2 4 4 4 3 5 6 5 5 5 5 3 3 2 4 6 2 2 6 8 5 4 3 7 9 9 8 10 13 13 13 13 11 8
16 13 11 11 14 14 12 13 13 11 9 10 14 16 14 11 7 5 3 3 3 2 3 7 8 10 16 12 4 6 7 3 4 12 13 9 9 6 5 5 4 5 4 7 4 1 2 1 0 3 3 5 5 2 3 3 5 6 6 6 7 6 5 4 3 4 3 3 6 8 6 5 4 7 5 3 4 6 6 6 5 3 1 1 2 3 5 5
16 17 12 10 13 15 13 13 13 11 10 11 15 17 14 6 3 4 5 3 2 2 3 4 4 8 14 10 4 4 4 3 7 12 7 4 6 3 5 4 3 5 3 4 3 4 5 2 1 1 2 5 7 5 6 6 5 7 5 5 4 4 5 5 5 4 1 5 7 6 4 5 5 6 5 5 6 6 6 5 5 3 2 6 6 4 4 4
11 15 15 12 13 14 13 13 13 12 10 12 18 18 10 3 0 4 4 2 2 3 4 4 4 7 10 8 6 5 4 3 5 7 5 4 5 4 4 5 4 4 0 2 1 4 3 2 2 2 1 4 6 5 5 6 5 5 5 6 4 2 3 3 3 0 3 6 5 4 1 3 7 7 7 10 11 8 6 4 4 4 2 5 5 2 1 3
8 12 16 16 14 13 14 14 14 12 9 13 19 14 6 3 5 6 3 1 2 3 5 6 5 8 10 7 5 5 4 3 6 5 4 4 5 5 3 3 5 4 2 5 3 1 2 6 2 2 2 4 6 5 2 1 0 4 5 6 4 3 2 3 3 1 4 5 4 3 2 4 5 4 9 14 14 10 6 7 4 3 1 2 2 3 5 7
10 12 17 19 17 16 16 15 14 12 10 14 15 7 4 5 5 5 3 2 1 2 3 6 7 9 9 5 5 6 4 1 6 5 3 4 5 5 4 4 4 3 4 4 3 5 3 4 3 4 3 8 8 6 8 6 4 5 4 6 5 5 5 4 3 3 4 3 3 3 2 3 2 3 6 9 12 13 12 9 5 2 2 1 2 6 8 10
12 14 17 19 19 19 19 15 11 11 12 13 8 3 6 8 3 4 5 3 1 2 4 7 9 8 5 2 3 7 3 1 5 5 4 5 5 6 6 5 6 4 5 4 2 3 4 5 6 4 4 11 10 6 8 7 1 3 3 5 3 5 5 3 3 5 4 1 3 2 3 5 4 6 8 9 12 14 16 15 10 7 3 1 3 8 9 10
13 14 16 17 18 19 19 15 9 9 11 9 5 5 6 4 3 3 3 2 3 4 7 7 5 5 5 2 3 6 2 2 6 4 3 5 3 5 6 5 9 9 6 6 2 2 3 4 5 0 1 6 7 5 5 4 2 2 2 4 5 5 7 4 3 0 3 2 4 2 5 5 3 7 9 8 8 9 13 15 14 13 7 3 6 9 9 11
12 13 13 14 16 19 20 16 10 10 8 4 3 6 2 0 2 1 1 0 5 8 8 5 2 4 5 3 4 6 2 2 5 4 3 4 2 6 6 5 9 12 9 8 4 2 5 2 4 1 2 4 2 2 2 2 3 5 3 6 3 2 4 4 1 3 2 3 4 2 6 5 3 5 6 4 3 7 9 8 10 12 7 5 7 8 11 12
10 11 11 13 15 17 19 17 13 13 10 3 2 3 1 1 2 1 3 3 3 6 5 4 4 4 6 5 4 6 5 4 5 5 4 4 4 7 9 5 8 15 15 11 5 2 5 2 4 1 2 4 3 3 1 4 3 5 4 3 4 2 1 1 2 2 1 3 5 4 5 4 5 6 3 4 6 9 9 8 8 6 7 8 7 10 15 13
7 7 7 10 14 15 16 16 16 16 11 4 4 4 2 2 5 6 4 5 4 2 3 3 3 3 5 6 5 6 5 6 7 5 3 4 4 6 11 8 7 15 20 15 6 3 3 3 4 2 1 2 4 1 5 1 2 2 2 1 2 3 4 3 3 3 3 3 4 4 3 4 6 5 5 8 10 10 9 6 1 4 7 9 11 15 19 16
6 5 4 9 13 14 14 14 16 15 7 3 5 3 1 0 6 15 15 6 3 2 1 1 1 4 5 5 5 5 4 5 8 6 3 5 4 3 7 9 5 9 17 16 7 2 2 3 4 3 3 0 1 3 7 7 4 3 3 3 1 1 2 2 2 2 4 4 3 4 5 7 5 5 7 8 7 7 6 4 4 2 8 12 15 18 20 18
7 3 3 9 12 13 15 11 9 7 3 3 5 3 2 1 3 10 14 9 3 1 1 1 1 4 4 3 4 5 4 4 6 5 2 5 5 2 4 7 7 7 9 10 7 4 2 2 4 2 1 3 6 6 6 10 9 6 6 7 6 5 4 2 3 2 2 4 4 3 6 10 6 4 5 6 6 6 4 3 3 8 15 18 20 22 21 20
7 2 3 10 11 14 14 7 3 4 2 4 6 6 6 4 4 7 7 6 7 3 1 1 0 2 2 3 3 3 5 5 5 5 4 4 5 3 2 4 10 12 9 5 5 5 4 4 4 3 4 5 7 6 3 6 4 3 4 5 4 4 5 6 5 4 1 3 3 3 5 12 4 7 7 7 6 2 5 9 10 13 18 20 21 21 20 20
6 3 5 10 12 16 13 4 3 4 2 3 6 8 9 6 5 7 6 4 6 5 2 1 1 1 1 2 3 3 4 4 4 4 3 2 3 3 1 2 8 11 7 3 3 4 4 3 3 2 3 3 4 5 4 2 2 1 3 3 3 3 4 5 5 4 2 4 3 2 6 12 3 7 5 3 3 6 8 11 12 14 15 16 16 17 19 21
5 3 3 6 13 18 12 3 4 6 3 3 4 6 9 7 6 7 5 5 5 3 3 3 3 3 1 2 3 3 3 3 2 3 2 2 2 3 1 4 6 5 4 3 4 6 5 2 4 3 1 3 4 4 4 4 1 2 3 3 5 6 5 3 2 2 1 5 6 5 7 11 4 5 4 2 4 6 9 10 11 12 12 14 16 17 17 18
3 3 2 4 12 17 10 1 3 4 4 4 4 6 7 5 7 11 8 6 7 6 4 4 5 4 2 3 3 1 1 3 2 2 3 2 1 2 1 3 5 5 4 4 6 7 6 2 4 5 5 5 3 3 4 3 1 2 3 5 6 7 9 5 2 3 5 7 7 6 8 12 12 4 3 1 4 7 6 9 12 14 15 16 15 14 16 19
2 3 3 3 8 13 11 4 1 2 4 7 4 5 7 3 5 13 12 7 9 9 5 5 6 5 3 2 1 1 2 1 2 2 3 3 2 2 1 1 1 3 5 6 6 5 3 1 3 5 6 7 6 5 4 3 4 3 4 5 5 5 8 7 4 5 8 7 6 9 10 15 21 17 10 7 1 5 2 9 12 14 14 14 16 20 24 25
2 1 4 5 3 7 9 8 5 2 2 6 4 3 9 6 2 7 10 8 10 11 5 2 5 6 5 6 5 5 5 2 1 2 3 3 1 1 1 2 1 4 6 4 3 4 4 1 2 3 4 6 5 4 3 5 3 4 3 2 1 1 4 6 6 9 7 5 9 12 10 13 21 21 18 11 1 3 6 9 9 12 14 19 23 27 29 28
5 2 4 8 4 3 6 9 10 8 3 3 3 3 8 9 5 6 8 6 9 12 6 2 7 9 8 10 7 5 7 5 4 5 5 4 2 2 2 3 2 4 7 3 1 4 4 2 3 1 4 5 4 5 3 4 3 3 3 3 3 3 5 7 11 11 6 6 11 10 7 10 16 19 19 12 2 3 10 13 15 17 19 23 26 28 29 30
9 5 6 8 5 5 9 8 9 10 7 4 3 3 7 12 12 8 6 4 5 10 9 6 8 10 8 9 8 6 7 8 8 8 5 4 4 3 2 1 1 3 4 3 2 3 4 3 4 3 5 8 8 8 5 4 4 4 5 5 4 5 8 9 11 11 7 8 11 12 11 13 15 15 17 20 16 13 15 20 24 24 22 22 24 25 27 29
12 7 5 4 5 6 10 9 8 8 8 6 4 4 4 10 13 9 6 7 7 6 9 10 10 9 9 8 8 7 8 10 10 9 8 6 5 4 4 3 3 2 2 2 2 2 3 4 4 5 4 10 12 11 8 6 7 7 6 6 6 9 11 11 10 8 6 8 11 12 13 15 15 10 13 28 30 18 14 21 27 29 26 20 19 23 27 30
16 11 7 3 3 3 5 6 6 5 6 7 7 6 5 6 11 8 4 10 13 8 9 14 10 6 7 8 7 8 9 9 7 8 12 13 9 5 3 4 6 5 2 2 2 2 3 3 2 5 4 8 10 10 8 4 2 5 9 12 14 14 13 14 11 7 8 11 12 11 9 12 12 5 8 23 27 19 18 24 28 32 27 18 16 22 27 32
22 17 11 4 1 2 3 3 5 5 6 9 11 10 7 4 7 9 5 9 18 19 18 16 9 5 5 8 11 14 12 8 7 7 10 11 9 9 7 5 7 7 6 5 3 3 5 4 3 5 5 7 5 5 5 4 3 5 12 15 17 16 16 15 13 12 14 13 10 9 9 11 11 7 8 16 19 20 24 27 29 31 24 16 18 26 30 32
Wind_Direction
189 186 187 181 174 175 181 185 187 188 184 181 180 182 189 192 197 203 209 212 210 205 196 194 192 191 188 183 183 179 180 170 164 172 172 174 189 199 213 226 202 182 175 163 155 149 153 152 156 157 154 159 163 187 195 199 179 153 95 104 229 236 273 272 204 164 140 152 178 174 170 146 150 162 139 132 125 125 133 142 140 147 163 162 154 157 165 177
193 191 192 188 179 176 182 188 189 189 188 188 187 189 194 196 202 205 209 210 205 200 194 193 191 192 189 182 179 174 177 172 174 179 176 177 193 207 223 209 183 175 170 159 157 153 145 141 147 152 163 177 169 173 179 185 174 154 113 126 223 206 17 337 148 137 126 158 175 176 178 163 173 175 159 165 165 148 137 143 158 152 155 167 167 170 180 184
195 194 194 193 185 179 183 188 189 190 190 193 194 194 196 198 203 203 205 206 201 197 193 193 192 193 190 185 176 165 174 179 187 189 187 193 200 205 208 190 177 177 174 171 174 164 144 150 170 166 174 191 181 174 173 174 183 182 106 123 244 203 97 15 62 95 137 160 163 173 185 181 180 175 167 176 166 166 174 167 170 176 179 182 179 181 187 191
197 197 196 195 191 185 185 187 188 189 191 194 196 195 196 197 199 200 201 202 200 195 192 193 192 192 193 189 173 165 171 182 208 201 198 206 199 194 189 183 183 184 182 185 189 174 140 147 177 185 191 202 185 181 188 177 185 183 124 160 232 180 105 11 51 72 119 153 161 166 164 155 170 175 173 165 140 215 220 201 199 204 201 196 194 193 193 195
198 199 198 196 195 191 187 186 186 187 190 192 193 194 194 194 196 197 198 200 199 194 191 192 193 193 194 191 180 173 156 120 232 202 198 203 192 185 181 183 188 190 188 192 194 182 162 144 166 193 206 204 165 164 203 188 173 110 114 139 126 129 114 352 76 76 99 142 152 148 133 147 164 174 179 170 158 217 226 216 220 225 219 209 203 201 197 197
200 201 200 198 197 195 190 186 184 185 187 189 190 192 193 194 194 196 197 198 198 193 191 191 194 194 194 195 191 186 171 131 353 191 193 196 189 182 179 185 187 192 193 189 187 177 170 152 162 203 204 175 163 159 183 189 179 129 117 86 73 110 127 136 146 100 102 128 132 125 132 156 158 173 192 197 203 186 176 198 216 223 225 222 211 204 201 201
202 200 199 197 196 196 192 188 186 185 187 188 190 191 193 195 194 196 197 196 197 192 190 190 192 194 194 197 196 202 208 226 324 188 190 189 188 185 182 187 187 191 188 182 180 168 164 171 210 227 191 130 172 162 153 176 174 139 200 83 83 100 113 124 157 132 120 124 124 129 144 160 163 179 201 217 223 210 204 220 239 224 212 215 211 203 204 207
203 201 197 195 194 194 192 190 188 187 188 190 191 192 194 196 196 198 197 196 196 190 190 189 189 192 192 198 199 211 227 238 274 171 182 183 185 185 183 184 183 182 176 175 166 152 167 209 237 239 248 254 177 159 145 148 136 129 154 138 108 95 104 110 135 145 139 127 130 148 167 183 189 213 225 228 228 220 226 241 253 254 189 197 205 201 199 207
203 201 195 193 193 193 191 189 189 189 189 191 192 194 195 197 199 198 197 197 194 189 189 188 189 190 191 199 199 212 236 232 220 179 176 179 181 182 183 179 177 174 169 173 164 154 189 218 266 243 265 263 154 141 139 131 325 171 141 134 122 109 120 115 116 135 134 138 154 176 230 242 221 256 258 245 236 222 223 234 241 238 204 195 201 202 203 209
203 199 196 193 192 193 191 188 189 189 189 192 193 195 197 200 201 198 199 197 194 190 188 189 190 189 193 197 189 205 236 218 211 198 176 177 181 181 179 172 170 169 166 176 176 175 188 134 37 198 168 77 120 107 116 131 140 133 127 124 123 127 136 133 137 135 131 127 146 165 251 259 204 194 255 241 227 218 219 225 229 226 219 212 213 216 219 226
202 198 196 194 192 193 191 188 188 189 190 193 193 196 197 199 201 198 198 197 195 189 187 191 189 189 194 195 194 201 212 196 203 197 177 175 178 176 172 169 166 167 170 177 181 187 189 174 75 145 157 101 101 81 99 117 126 131 125 109 110 125 132 156 151 148 153 125 140 156 359 258 149 184 248 236 220 220 215 218 223 222 222 221 223 227 230 236
201 197 197 195 193 193 193 190 188 188 190 191 194 197 198 200 200 197 195 195 194 189 188 190 187 190 193 201 211 213 232 211 199 185 172 168 168 169 167 168 167 170 179 176 181 192 187 183 168 149 138 140 124 78 108 116 126 137 126 99 20 21 9 216 180 163 174 139 158 123 354 280 189 223 250 248 230 225 210 212 218 221 225 226 230 234 237 242
197 195 197 195 193 194 194 192 190 189 188 190 194 196 198 200 197 193 191 191 191 188 189 189 187 189 188 205 220 220 242 220 195 180 169 164 160 161 160 165 166 170 182 179 177 181 180 184 166 133 115 135 137 113 129 115 121 148 128 103 77 18 328 239 200 166 165 147 168 111 316 276 249 238 258 270 229 214 205 209 215 222 229 231 234 237 241 244
193 193 195 194 193 195 196 193 191 191 189 190 192 195 198 198 195 192 187 186 187 187 189 188 186 187 189 202 220 215 219 199 189 180 168 164 160 155 152 154 157 165 174 173 167 164 167 167 146 118 109 128 130 121 110 67 103 154 49 61 84 76 295 270 189 158 151 184 182 108 215 262 277 267 278 275 217 205 205 209 215 223 229 235 237 239 243 245
187 188 191 193 192 193 196 195 191 190 190 191 191 193 194 194 194 190 185 184 184 185 186 187 186 183 190 207 211 197 196 189 185 178 169 167 167 159 147 144 147 156 155 146 153 154 160 164 150 116 111 123 124 115 72 17 14 54 80 329 338 141 264 305 203 166 163 215 193 120 206 268 283 291 307 227 203 204 210 216 220 226 234 241 245 245 246 248
181 182 185 190 190 191 194 194 193 191 189 189 190 190 189 191 192 188 185 182 181 182 180 184 187 179 174 204 199 185 186 187 182 178 175 172 172 165 149 140 139 146 146 139 143 149 156 156 136 119 121 127 117 98 62 33 346 2 106 234 285 183 244 308 312 186 154 137 208 180 214 272 283 298 22 164 195 205 214 225 230 234 241 244 249 249 247 249
171 174 178 182 184 187 190 191 192 191 188 187 186 185 183 182 186 184 180 179 178 174 171 176 181 182 203 206 185 185 188 185 180 180 178 175 175 165 155 146 138 139 138 135 139 146 150 137 126 128 121 109 96 90 71 37 313 311 40 225 248 209 174 239 288 284 111 109 225 254 227 252 266 280 284 230 211 220 227 241 248 249 249 245 246 246 244 244
157 162 168 174 179 182 184 187 188 188 186 181 177 177 174 171 177 177 173 174 167 158 162 165 159 170 239 211 183 188 191 184 179 179 175 175 174 164 159 148 140 141 134 135 138 141 142 114 112 106 27 22 72 95 103 199 201 202 203 217 262 223 175 205 250 279 90 103 244 269 259 257 265 277 275 265 257 248 246 254 258 259 257 253 247 242 242 242
146 153 160 167 173 177 179 180 181 182 178 172 168 165 161 158 160 167 170 169 160 148 161 172 162 150 238 194 185 187 187 182 177 177 176 172 168 167 159 144 148 146 129 134 139 143 138 85 82 96 119 229 200 143 167 201 174 165 180 169 177 187 232 243 251 298 48 111 248 242 247 260 265 274 274 271 267 254 250 254 256 257 256 255 249 244 243 243
136 145 155 163 168 171 173 173 174 174 171 169 164 156 152 149 137 149 172 170 165 148 60 179 177 169 71 175 182 180 175 175 177 178 177 173 167 165 156 146 153 143 116 155 167 179 130 92 136 187 194 208 213 183 176 181 144 131 125 106 146 145 314 285 276 311 6 107 253 248 257 269 266 268 272 274 274 259 250 249 249 251 252 252 249 247 247 248
126 139 149 158 167 170 170 170 170 170 171 170 163 152 151 160 142 151 174 174 179 170 31 178 182 192 70 172 180 172 159 165 180 182 177 174 167 161 160 151 137 136 242 157 133 83 96 108 208 216 202 195 210 185 145 112 87 90 101 78 32 113 211 268 271 302 1 71 271 299 305 279 268 264 271 273 272 257 247 242 245 249 249 250 250 251 252 254
120 131 145 156 166 171 173 172 170 172 172 168 162 147 148 170 171 173 168 171 194 196 220 173 182 195 170 164 174 168 153 149 176 184 178 173 168 167 171 152 122 172 191 117 103 55 67 197 236 232 204 149 101 103 105 91 82 77 94 90 20 280 199 295 316 306 15 104 274 335 332 284 271 258 261 261 252 251 252 246 247 250 250 251 252 254 256 256
125 126 136 152 164 172 178 176 173 174 172 167 162 148 148 169 176 173 165 138 192 204 213 179 183 194 173 159 170 170 160 152 171 182 177 173 172 172 168 153 142 166 137 121 133 109 119 239 248 235 185 120 71 67 86 76 77 81 97 108 258 266 170 279 298 295 300 137 270 336 319 283 283 273 257 258 254 258 262 257 253 254 253 255 257 259 259 259
144 135 133 142 158 171 178 179 178 175 174 171 163 145 146 167 174 172 168 110 148 201 208 192 183 193 183 165 173 172 159 161 175 179 177 175 171 165 171 170 147 145 169 158 141 145 206 255 274 204 132 119 109 74 86 93 43 330 131 137 200 243 152 195 280 318 339 356 4 10 325 290 301 318 285 277 269 264 270 264 253 252 253 256 260 261 261 261
177 161 144 141 147 165 174 177 180 180 181 180 170 138 132 159 169 172 169 82 29 195 202 196 190 196 193 180 177 168 145 154 168 177 179 177 171 158 172 179 155 172 206 170 133 156 232 278 330 135 100 94 110 114 138 137 119 314 233 172 186 167 138 128 22 26 28 343 325 41 359 291 304 316 288 299 309 283 287 278 250 252 255 254 256 258 259 260
194 188 161 148 144 155 164 162 173 183 186 189 186 157 132 148 153 167 162 53 340 204 173 187 190 193 193 186 171 153 130 170 166 173 176 177 178 164 151 172 146 189 200 165 132 158 233 331 61 129 122 82 87 111 222 140 112 290 252 193 163 129 118 117 73 50 58 270 288 69 93 272 301 296 257 273 310 302 305 301 270 263 258 254 256 256 258 261
193 187 174 160 146 149 153 149 165 175 176 193 197 182 157 149 143 155 137 35 289 187 145 176 184 183 186 177 166 150 137 174 154 170 173 172 182 171 166 186 126 186 189 123 131 223 156 79 54 79 89 80 97 148 244 130 116 219 243 160 114 102 119 135 107 105 219 249 321 13 109 222 292 278 240 292 325 312 302 296 286 270 258 256 257 258 261 266
194 185 182 172 153 151 153 148 154 158 166 193 196 189 178 156 149 145 117 48 212 153 139 174 170 174 175 166 167 156 136 154 143 175 176 171 178 170 175 195 167 189 167 111 168 256 89 155 161 110 86 83 160 217 253 118 111 233 228 143 113 116 129 119 102 103 356 26 320 314 104 174 274 274 304 355 320 297 287 278 275 272 267 264 263 263 266 268
209 196 188 179 165 161 158 152 152 155 170 183 182 185 176 157 150 122 97 132 161 119 133 164 158 169 165 156 164 146 129 147 136 168 175 174 177 170 160 188 173 164 74 86 158 234 4 172 190 135 120 175 196 256 275 129 129 202 172 87 65 72 79 77 97 103 41 31 256 255 197 183 267 277 300 349 294 263 272 273 269 277 279 275 272 262 255 255
216 212 200 188 180 176 165 158 159 159 165 169 174 176 164 152 139 112 150 209 160 98 104 150 160 165 156 145 151 143 126 122 122 141 160 170 168 164 144 147 121 109 47 39 93 235 341 68 101 106 139 173 152 78 24 88 126 124 92 57 40 26 33 42 59 81 59 291 251 237 205 185 265 281 255 228 230 225 251 283 285 299 349 124 159 201 218 245
216 214 203 194 190 185 173 166 168 164 164 166 168 166 156 138 92 130 186 205 126 115 107 139 164 157 157 151 151 155 108 84 140 138 139 155 156 148 136 136 71 70 34 24 46 327 347 33 345 59 109 127 110 61 24 39 84 95 79 76 59 355 12 18 1 48 93 256 261 260 223 178 230 264 248 250 264 242 244 275 272 255 133 122 128 153 198 246
212 209 196 191 193 187 180 179 174 164 166 165 161 161 149 106 182 202 197 162 145 182 162 165 178 164 164 154 146 155 120 124 168 152 140 149 164 180 167 173 148 88 314 201 149 333 334 285 265 48 68 146 109 67 19 3 30 72 91 98 86 348 10 1 310 207 227 245 262 293 304 205 232 248 254 265 269 256 259 291 267 231 170 123 122 145 235 292
202 200 195 194 199 196 192 194 184 171 168 163 159 157 127 122 209 213 202 181 186 183 154 151 160 159 155 149 158 157 111 140 182 167 150 143 165 205 238 226 174 131 179 185 145 126 294 307 310 73 304 209 151 122 130 293 174 136 136 132 132 137 136 258 257 267 268 256 271 307 299 265 276 265 236 246 261 269 302 316 277 224 168 92 69 357 331 325
195 198 200 201 206 208 206 208 199 183 174 167 157 139 140 190 209 182 177 229 178 122 121 129 133 146 155 157 174 161 103 125 176 152 134 137 154 205 238 253 213 117 109 152 154 166 193 292 225 178 203 189 180 179 165 152 167 185 155 136 153 161 165 201 207 212 247 269 291 295 259 209 224 276 239 242 266 276 291 299 275 263 297 332 13 346 331 327
198 203 207 207 209 211 208 210 210 190 174 167 150 129 181 201 217 164 179 212 166 77 95 118 120 136 170 188 175 173 145 168 181 147 144 165 170 189 193 210 205 162 131 165 205 167 173 251 234 209 177 171 180 196 159 122 123 231 138 117 179 190 154 151 192 184 178 295 295 247 236 213 213 277 276 267 271 277 292 297 290 288 284 155 338 335 336 337
203 205 208 211 211 214 211 209 219 202 175 150 141 190 203 201 199 179 182 179 159 129 113 116 110 131 173 187 186 196 162 133 173 158 175 193 188 192 194 204 197 185 169 171 190 154 158 273 276 286 170 181 180 182 156 139 190 202 142 180 215 180 128 126 257 348 93 251 270 211 251 284 318 292 279 271 273 292 307 301 287 280 269 260 317 348 359 348
206 204 209 209 207 217 217 209 209 200 181 126 151 197 205 346 219 206 322 227 153 139 127 133 141 144 165 176 183 192 164 113 164 167 185 201 218 199 199 221 200 192 190 180 196 192 155 240 303 97 200 249 215 143 92 54 125 134 182 214 204 92 89 111 221 347 35 250 275 244 245 281 312 277 299 351 331 300 301 295 285 290 307 332 340 3 357 342
209 209 211 207 205 212 214 215 212 188 163 118 261 240 169 208 272 355 12 360 128 133 130 159 169 148 165 179 181 182 165 147 175 182 178 197 241 200 181 203 201 196 198 184 193 230 143 190 297 41 191 281 360 127 172 2 68 136 180 186 121 120 237 117 162 200 184 246 279 275 259 256 217 228 292 324 293 287 288 286 288 320 28 22 357 358 355 354
205 208 208 206 205 204 205 212 205 178 148 132 245 256 203 209 265 267 290 349 20 114 152 174 163 135 165 173 167 175 172 165 174 179 169 181 234 206 179 187 200 199 195 180 182 236 138 173 262 322 261 300 16 151 194 267 353 59 94 114 100 138 173 170 170 168 163 207 261 277 287 257 224 198 189 222 248 261 269 280 299 65 39 3 353 1 1 1
178 181 193 201 200 202 204 200 187 173 153 168 206 215 149 230 263 258 258 276 13 32 166 213 133 140 174 179 166 171 168 162 169 176 184 182 206 243 192 187 186 192 190 184 184 206 119 175 226 300 335 190 181 215 184 170 173 165 158 186 198 93 111 183 194 137 143 171 216 257 273 264 236 191 185 204 228 224 204 160 128 21 351 356 5 3 356 353
157 150 191 190 189 197 199 187 169 171 166 187 198 197 204 222 264 267 258 228 206 346 84 148 151 146 157 162 169 173 152 148 166 172 191 186 187 238 213 195 186 167 172 184 194 194 182 176 170 187 307 195 226 242 198 183 185 177 179 191 187 162 130 156 241 253 147 179 183 182 269 272 238 179 188 181 164 157 133 78 1 350 357 1 357 352 350 347
156 132 167 178 182 184 185 180 160 173 179 191 199 195 198 210 227 259 262 201 200 244 45 62 245 151 124 129 153 156 141 152 176 176 192 196 182 188 218 213 193 171 150 168 202 186 158 115 118 179 216 213 242 265 214 191 191 172 191 188 171 162 144 155 212 241 204 231 210 136 264 272 233 141 154 161 158 119 26 12 3 1 357 353 350 348 345 335
164 134 137 172 186 177 173 189 193 188 211 191 185 188 193 198 200 220 226 179 186 207 190 218 216 157 117 118 130 139 139 150 171 170 181 189 189 218 248 180 179 166 140 149 200 167 142 116 129 222 301 315 308 328 3 36 93 164 226 174 138 180 171 154 179 183 163 223 218 144 250 266 237 141 168 215 289 337 17 21 4 353 350 351 346 334 323 316
177 179 137 177 189 179 176 199 197 201 215 157 163 190 200 207 196 190 192 181 180 168 165 215 202 166 166 76 106 153 159 142 157 169 161 152 199 250 314 109 141 141 120 154 176 170 178 172 137 135 349 335 336 340 337 344 14 206 233 197 182 179 151 132 159 151 210 219 187 171 240 261 254 133 119 19 360 14 21 7 344 337 335 326 318 315 315 316
176 208 217 211 196 191 197 212 167 197 197 171 189 199 191 207 203 191 182 175 183 169 158 212 204 163 98 50 63 99 157 140 151 169 157 153 254 279 29 68 81 82 93 113 127 149 167 174 150 157 193 217 220 211 223 251 202 210 235 208 196 172 155 163 168 170 229 226 193 193 237 261 267 231 156 32 57 57 13 324 312 311 310 307 312 322 324 323
173 199 211 211 204 208 223 245 157 162 187 186 200 201 190 200 201 191 185 180 190 185 169 188 185 150 101 81 117 217 236 160 115 138 156 175 261 302 324 319 29 100 113 99 96 116 121 156 170 166 195 204 195 199 194 145 141 196 240 224 213 185 172 165 145 186 218 224 222 228 231 254 267 263 252 257 96 93 268 280 292 299 305 310 316 316 314 312
183 210 189 169 193 223 233 242 223 192 196 192 189 190 193 198 198 186 190 196 197 193 184 170 175 169 167 173 182 210 219 203 122 183 184 175 209 2 28 314 304 172 160 123 86 97 95 260 207 147 192 198 182 190 137 100 145 198 204 221 253 221 183 178 201 212 197 196 238 239 220 240 264 270 269 270 186 140 243 262 278 290 299 303 303 303 302 302
202 287 218 183 177 190 210 228 216 205 234 218 191 180 185 193 201 188 195 204 191 188 190 195 198 198 182 171 174 193 200 199 211 222 213 186 172 58 21 327 316 178 168 139 107 111 109 241 255 165 237 232 214 221 167 128 183 196 184 213 213 197 192 202 230 233 189 197 246 250 213 227 257 269 274 279 277 228 269 283 287 285 286 289 294 297 297 298
216 265 249 209 220 205 189 196 189 193 220 231 209 204 186 193 201 192 177 166 182 194 195 200 210 207 190 172 172 177 181 188 210 220 204 189 187 151 138 261 246 178 155 117 140 146 132 218 228 194 257 265 253 248 236 201 211 210 219 234 222 220 218 213 232 244 231 237 260 266 259 253 255 267 282 290 289 281 284 290 287 282 281 285 291 294 295 295
213 233 250 244 265 235 195 181 161 178 211 223 236 246 208 199 201 195 175 168 178 195 197 208 215 200 190 188 183 194 194 187 199 205 180 176 199 191 184 190 160 150 144 118 155 183 171 210 194 154 222 263 255 250 249 238 235 235 240 249 249 253 251 241 237 240 245 255 258 263 272 270 263 264 282 286 288 291 288 284 283 284 287 290 293 294 296 297
211 214 236 279 294 247 203 182 159 163 199 210 219 222 224 217 198 186 189 191 188 182 191 207 210 185 192 206 201 211 207 184 181 188 183 185 189 179 183 183 155 144 159 153 147 170 174 183 140 132 189 246 246 236 231 215 226 252 250 242 237 240 247 248 242 224 221 237 249 259 266 268 269 259 260 279 287 291 284 281 283 287 291 299 304 300 299 300
212 212 225 249 303 261 231 177 164 178 201 208 212 208 207 218 182 172 192 206 198 198 202 202 186 154 192 214 215 223 220 186 144 143 170 180 160 126 112 126 142 150 166 167 156 165 158 152 150 153 195 242 231 184 174 130 113 238 243 235 229 230 236 241 246 241 228 224 233 246 248 259 279 288 273 278 285 285 285 285 284 289 299 315 309 298 297 302
Height
1482 1484 1485 1486 1486 1488 1490 1492 1494 1496 1497 1497 1499 1500 1502 1504 1506 1508 1509 1510 1511 1512 1513 1514 1515 1516 1517 1518 1518 1519 1519 1520 1520 1520 1521 1523 1524 1525 1526 1527 1528 1529 1530 1530 1531 1531 1531 1531 1532 1532 1533 1534 1535 1535 1535 1536 1536 1537 1540 1545 1548 1547 1546 1542 1541 1540 1540 1543 1544 1544 1544 1545 1546 1547 1547 1549 1549 1550 1551 1552 1553 1553 1554 1555 1556 1557 1558 1560
1481 1483 1484 1486 1486 1487 1490 1492 1493 1495 1496 1497 1498 1500 1502 1503 1505 1507 1508 1509 1510 1511 1512 1513 1514 1515 1516 1517 1518 1518 1519 1519 1520 1520 1521 1522 1524 1525 1526 1526 1527 1528 1529 1530 1530 1530 1531 1531 1532 1533 1533 1534 1534 1535 1536 1536 1536 1537 1541 1545 1547 1546 1544 1541 1539 1538 1539 1541 1542 1543 1544 1544 1545 1546 1547 1548 1549 1550 1551 1552 1553 1553 1554 1555 1556 1557 1558 1559
1480 1482 1484 1485 1486 1487 1489 1491 1493 1494 1495 1497 1498 1500 1501 1503 1505 1506 1507 1508 1509 1510 1511 1512 1513 1515 1516 1516 1517 1518 1518 1519 1519 1520 1521 1522 1523 1524 1525 1526 1527 1528 1529 1530 1530 1530 1530 1531 1532 1533 1533 1534 1534 1535 1535 1536 1536 1537 1540 1545 1545 1543 1542 1541 1540 1539 1538 1539 1541 1543 1543 1544 1545 1545 1546 1547 1549 1549 1550 1551 1551 1552 1553 1554 1555 1556 1558 1559
1479 1481 1483 1484 1486 1487 1488 1490 1492 1493 1495 1497 1498 1499 1501 1502 1504 1505 1506 1507 1508 1509 1510 1511 1513 1514 1515 1516 1516 1517 1518 1518 1519 1520 1521 1522 1523 1524 1525 1526 1527 1528 1529 1529 1530 1530 1530 1531 1532 1533 1533 1534 1534 1535 1535 1536 1537 1537 1539 1543 1543 1541 1541 1541 1540 1539 1539 1539 1540 1542 1543 1544 1545 1545 1546 1546 1549 1550 1548 1548 1549 1549 1550 1552 1554 1555 1556 1557
1478 1480 1482 1483 1485 1486 1488 1489 1491 1493 1494 1496 1497 1499 1500 1501 1503 1504 1505 1507 1508 1508 1509 1511 1512 1513 1514 1515 1516 1516 1518 1519 1519 1519 1521 1522 1523 1524 1524 1525 1526 1527 1528 1529 1529 1530 1530 1530 1531 1532 1533 1533 1534 1535 1535 1535 1536 1537 1539 1540 1540 1540 1541 1541 1540 1540 1540 1540 1541 1542 1543 1544 1545 1545 1546 1546 1548 1548 1546 1546 1547 1547 1549 1550 1552 1553 1555 1556
1477 1479 1480 1482 1484 1486 1488 1489 1490 1492 1494 1495 1497 1498 1499 1500 1502 1503 1504 1506 1507 1508 1509 1510 1511 1513 1514 1514 1515 1516 1517 1519 1518 1519 1520 1521 1522 1523 1524 1525 1526 1527 1528 1528 1529 1529 1529 1530 1531 1532 1532 1533 1534 1534 1535 1535 1535 1538 1540 1540 1539 1539 1540 1541 1541 1540 1540 1541 1542 1542 1543 1544 1545 1545 1545 1545 1546 1546 1545 1546 1546 1547 1548 1549 1550 1552 1553 1554
1476 1478 1479 1481 1483 1485 1487 1488 1490 1491 1493 1494 1496 1497 1498 1500 1501 1502 1503 1505 1506 1507 1508 1509 1511 1512 1513 1514 1515 1516 1517 1517 1518 1519 1520 1521 1522 1523 1524 1525 1526 1527 1527 1528 1528 1529 1529 1530 1530 1531 1532 1532 1533 1533 1534 1535 1535 1538 1540 1539 1540 1539 1539 1541 1541 1541 1541 1541 1542 1543 1543 1544 1544 1545 1545 1545 1545 1545 1545 1545 1546 1546 1547 1548 1549 1550 1552 1553
1475 1477 1478 1480 1482 1484 1486 1487 1489 1490 1492 1493 1495 1496 1498 1499 1500 1501 1502 1504 1505 1506 1507 1509 1510 1512 1513 1514 1515 1516 1517 1517 1518 1518 1519 1520 1522 1523 1524 1525 1525 1526 1527 1527 1528 1528 1529 1529 1530 1531 1532 1532 1532 1532 1533 1535 1536 1537 1539 1539 1539 1539 1539 1540 1541 1541 1541 1542 1542 1543 1543 1544 1544 1544 1544 1543 1544 1545 1545 1544 1545 1546 1547 1548 1549 1549 1550 1551
1474 1476 1478 1479 1481 1483 1484 1486 1488 1489 1491 1493 1494 1495 1497 1498 1499 1500 1502 1503 1504 1506 1507 1508 1510 1511 1513 1514 1515 1517 1516 1517 1518 1518 1519 1520 1521 1522 1523 1524 1525 1526 1526 1527 1527 1528 1528 1529 1530 1531 1531 1531 1531 1532 1533 1535 1537 1537 1538 1538 1539 1539 1540 1540 1541 1541 1542 1542 1543 1543 1543 1544 1544 1544 1543 1541 1542 1543 1544 1544 1544 1545 1546 1546 1548 1548 1549 1550
1473 1475 1477 1479 1480 1482 1483 1485 1487 1488 1490 1492 1493 1495 1496 1497 1498 1500 1501 1502 1504 1505 1506 1508 1509 1511 1512 1514 1516 1516 1516 1516 1517 1518 1518 1519 1521 1522 1523 1524 1524 1525 1526 1526 1527 1528 1528 1529 1530 1530 1531 1530 1531 1532 1533 1535 1537 1536 1537 1538 1539 1539 1540 1540 1541 1541 1541 1542 1543 1543 1544 1544 1543 1544 1542 1539 1540 1541 1542 1543 1543 1543 1544 1545 1546 1546 1547 1548
1472 1474 1476 1478 1479 1481 1482 1484 1486 1487 1489 1490 1492 1494 1495 1496 1498 1499 1500 1502 1503 1505 1506 1507 1509 1510 1512 1513 1515 1515 1515 1516 1517 1517 1518 1519 1521 1522 1523 1523 1524 1525 1525 1526 1527 1527 1528 1529 1530 1530 1530 1531 1531 1533 1533 1534 1536 1536 1537 1539 1540 1540 1540 1540 1540 1541 1541 1542 1542 1542 1544 1543 1544 1543 1538 1536 1539 1539 1540 1541 1542 1542 1542 1543 1544 1545 1545 1546
1471 1473 1475 1477 1479 1480 1482 1483 1485 1486 1488 1490 1491 1493 1494 1496 1497 1498 1500 1501 1503 1504 1505 1507 1508 1510 1512 1513 1514 1514 1515 1516 1517 1517 1518 1519 1520 1522 1522 1523 1524 1525 1525 1526 1526 1527 1528 1529 1530 1530 1530 1531 1532 1534 1535 1535 1536 1537 1537 1540 1542 1541 1541 1540 1540 1541 1541 1542 1542 1543 1544 1543 1543 1539 1533 1535 1538 1538 1539 1539 1540 1541 1541 1542 1542 1543 1543 1544
1470 1472 1474 1476 1478 1480 1482 1483 1484 1486 1487 1489 1491 1492 1494 1495 1497 1498 1499 1501 1502 1504 1505 1506 1508 1509 1511 1512 1513 1514 1515 1515 1516 1517 1518 1519 1520 1521 1522 1523 1524 1524 1525 1526 1526 1527 1528 1529 1529 1530 1531 1531 1533 1534 1535 1535 1536 1537 1538 1540 1543 1545 1543 1539 1540 1540 1540 1542 1541 1543 1547 1542 1539 1536 1532 1535 1536 1536 1538 1538 1538 1539 1540 1541 1541 1541 1541 1542
1469 1471 1473 1476 1478 1479 1481 1483 1484 1485 1487 1488 1490 1491 1493 1494 1496 1497 1499 1500 1501 1503 1504 1506 1508 1509 1511 1512 1512 1513 1514 1515 1516 1517 1518 1519 1520 1521 1522 1523 1524 1524 1525 1525 1526 1527 1528 1529 1530 1530 1531 1532 1533 1534 1535 1537 1537 1539 1540 1541 1544 1547 1545 1540 1540 1541 1540 1542 1540 1543 1549 1542 1536 1535 1533 1533 1534 1535 1536 1536 1537 1538 1538 1539 1539 1539 1539 1539
1468 1470 1473 1475 1477 1479 1481 1482 1483 1485 1486 1488 1489 1491 1492 1494 1495 1497 1498 1499 1501 1502 1504 1506 1507 1509 1511 1511 1511 1512 1513 1514 1516 1517 1518 1519 1520 1521 1522 1523 1524 1524 1525 1525 1526 1527 1528 1529 1530 1530 1532 1532 1533 1535 1537 1539 1539 1539 1543 1546 1547 1547 1546 1541 1540 1540 1540 1542 1540 1543 1548 1542 1536 1534 1532 1532 1533 1534 1535 1536 1537 1537 1537 1538 1537 1538 1537 1537
1467 1469 1472 1474 1476 1478 1480 1482 1483 1484 1486 1487 1489 1490 1492 1493 1494 1496 1497 1498 1500 1502 1504 1506 1507 1509 1510 1510 1511 1511 1513 1514 1515 1516 1518 1519 1520 1521 1522 1523 1523 1524 1524 1525 1526 1527 1528 1529 1530 1531 1532 1533 1534 1536 1539 1543 1543 1541 1544 1548 1547 1546 1548 1545 1541 1540 1540 1541 1541 1543 1545 1542 1536 1534 1533 1534 1534 1534 1534 1535 1535 1535 1536 1536 1535 1535 1535 1535
1467 1469 1471 1473 1476 1477 1479 1481 1482 1484 1485 1487 1488 1489 1491 1492 1494 1495 1497 1498 1500 1502 1503 1505 1507 1509 1509 1509 1510 1510 1511 1513 1514 1516 1517 1519 1520 1521 1522 1523 1523 1524 1524 1525 1526 1527 1528 1529 1530 1531 1532 1533 1535 1537 1544 1551 1550 1545 1545 1547 1546 1545 1548 1546 1541 1540 1540 1541 1542 1543 1544 1541 1536 1533 1534 1535 1535 1535 1534 1533 1533 1533 1533 1533 1533 1533 1532 1532
1467 1469 1471 1473 1475 1477 1479 1480 1482 1483 1485 1486 1487 1489 1490 1492 1494 1495 1496 1498 1499 1501 1504 1504 1506 1509 1509 1507 1508 1509 1510 1512 1514 1515 1517 1519 1520 1521 1522 1522 1523 1524 1525 1526 1526 1527 1528 1529 1530 1532 1533 1534 1535 1538 1545 1549 1546 1545 1545 1546 1545 1544 1545 1543 1541 1541 1541 1541 1543 1543 1544 1540 1536 1533 1533 1534 1534 1533 1532 1532 1531 1531 1531 1531 1530 1530 1529 1529
1468 1469 1471 1473 1474 1476 1478 1479 1481 1482 1484 1485 1487 1488 1490 1492 1494 1496 1496 1497 1498 1501 1503 1503 1503 1506 1506 1504 1506 1508 1509 1512 1513 1515 1517 1518 1520 1521 1521 1522 1523 1524 1525 1526 1527 1527 1528 1530 1532 1535 1536 1535 1535 1537 1539 1540 1539 1540 1542 1544 1544 1544 1545 1544 1543 1543 1542 1542 1543 1542 1541 1538 1536 1534 1531 1531 1532 1531 1530 1529 1528 1528 1528 1528 1528 1527 1526 1526
1468 1470 1471 1472 1474 1476 1477 1479 1480 1482 1483 1484 1486 1488 1490 1492 1494 1496 1496 1496 1497 1499 1500 1500 1501 1503 1502 1502 1505 1507 1509 1511 1513 1515 1516 1518 1519 1520 1521 1522 1523 1524 1525 1526 1528 1528 1528 1532 1535 1535 1535 1533 1533 1534 1535 1535 1536 1537 1540 1543 1544 1544 1546 1545 1543 1542 1541 1542 1541 1540 1540 1537 1535 1533 1530 1529 1529 1528 1528 1526 1525 1524 1524 1524 1524 1524 1523 1522
1468 1470 1471 1473 1474 1475 1477 1478 1480 1481 1482 1484 1485 1487 1488 1489 1491 1493 1495 1496 1497 1498 1499 1500 1501 1502 1502 1503 1504 1506 1508 1511 1513 1514 1516 1518 1519 1520 1521 1522 1523 1525 1526 1526 1527 1528 1529 1535 1535 1532 1531 1531 1530 1531 1532 1534 1534 1536 1539 1542 1543 1544 1546 1545 1544 1542 1541 1542 1541 1540 1539 1535 1532 1532 1528 1527 1527 1524 1523 1522 1521 1520 1520 1521 1520 1520 1519 1519
1469 1470 1471 1473 1474 1475 1477 1478 1479 1480 1482 1484 1485 1486 1487 1488 1489 1491 1493 1495 1497 1498 1499 1500 1501 1502 1502 1504 1505 1506 1508 1510 1512 1514 1515 1517 1518 1519 1520 1522 1524 1525 1526 1526 1529 1531 1534 1536 1532 1529 1530 1530 1530 1531 1531 1533 1534 1537 1540 1542 1544 1545 1546 1546 1544 1542 1542 1543 1541 1541 1540 1532 1528 1528 1525 1522 1521 1518 1517 1517 1517 1516 1517 1518 1516 1515 1515 1516
1470 1470 1472 1473 1474 1475 1476 1478 1479 1480 1482 1483 1485 1486 1487 1488 1490 1491 1492 1494 1496 1497 1499 1500 1501 1502 1502 1504 1505 1506 1507 1509 1511 1513 1515 1516 1517 1518 1520 1521 1523 1525 1526 1527 1530 1535 1538 1534 1529 1529 1529 1529 1531 1531 1531 1533 1536 1537 1539 1543 1545 1544 1546 1546 1544 1542 1542 1542 1542 1542 1541 1531 1523 1523 1520 1516 1515 1514 1514 1513 1513 1514 1514 1513 1512 1511 1512 1513
1470 1470 1472 1472 1474 1475 1476 1478 1479 1480 1482 1483 1485 1486 1487 1488 1490 1491 1492 1494 1495 1496 1498 1500 1500 1501 1502 1503 1504 1506 1507 1508 1509 1511 1514 1515 1517 1518 1519 1520 1523 1526 1527 1526 1528 1532 1533 1531 1528 1529 1529 1528 1531 1532 1532 1534 1538 1539 1539 1542 1543 1542 1544 1545 1544 1542 1541 1542 1543 1543 1540 1529 1521 1521 1516 1512 1513 1512 1511 1510 1510 1510 1510 1509 1508 1509 1509 1510
1470 1471 1471 1472 1474 1474 1476 1478 1479 1481 1482 1483 1485 1486 1487 1488 1489 1491 1492 1494 1497 1497 1498 1499 1500 1500 1501 1502 1504 1505 1506 1508 1509 1511 1512 1514 1516 1518 1518 1519 1522 1526 1526 1526 1528 1531 1530 1529 1529 1529 1528 1529 1531 1532 1533 1534 1539 1541 1539 1540 1540 1540 1543 1544 1544 1543 1544 1547 1544 1544 1546 1533 1520 1521 1518 1512 1512 1511 1508 1508 1507 1507 1507 1507 1505 1505 1506 1508
1469 1470 1471 1472 1473 1474 1476 1477 1479 1481 1481 1484 1485 1486 1488 1488 1490 1491 1492 1499 1500 1496 1497 1498 1498 1499 1499 1501 1503 1505 1508 1508 1508 1510 1512 1514 1516 1516 1518 1520 1521 1524 1524 1525 1528 1530 1529 1528 1529 1529 1529 1530 1532 1533 1534 1535 1540 1543 1541 1540 1539 1539 1542 1543 1544 1545 1549 1551 1546 1545 1552 1545 1526 1518 1517 1514 1512 1511 1508 1507 1506 1505 1505 1503 1502 1502 1504 1506
1469 1470 1471 1472 1472 1473 1475 1476 1478 1480 1481 1484 1484 1486 1489 1488 1491 1491 1494 1509 1505 1491 1493 1497 1496 1496 1497 1500 1501 1504 1508 1508 1508 1510 1511 1514 1516 1516 1518 1520 1520 1522 1522 1524 1529 1530 1529 1529 1529 1529 1530 1533 1534 1535 1535 1534 1540 1543 1541 1540 1538 1538 1541 1543 1544 1547 1549 1550 1548 1547 1550 1553 1539 1519 1513 1514 1513 1511 1508 1506 1504 1502 1501 1499 1499 1501 1503 1505
1468 1470 1471 1472 1472 1473 1474 1475 1477 1479 1481 1483 1483 1487 1488 1488 1492 1489 1497 1515 1503 1485 1489 1493 1493 1495 1496 1499 1501 1502 1504 1504 1507 1511 1511 1513 1515 1515 1517 1519 1519 1520 1520 1523 1530 1531 1529 1529 1529 1529 1532 1534 1534 1535 1536 1535 1538 1541 1540 1539 1538 1539 1542 1543 1545 1549 1552 1552 1553 1550 1549 1555 1545 1520 1513 1516 1514 1512 1508 1504 1503 1499 1498 1497 1497 1500 1502 1504
1468 1469 1470 1472 1472 1473 1474 1475 1477 1479 1481 1482 1483 1486 1487 1489 1491 1489 1501 1509 1491 1481 1487 1489 1492 1495 1495 1498 1501 1501 1502 1504 1506 1509 1511 1513 1514 1515 1517 1518 1518 1520 1521 1523 1527 1530 1530 1529 1530 1530 1531 1533 1535 1537 1537 1535 1536 1538 1540 1539 1539 1542 1543 1545 1548 1549 1554 1556 1553 1549 1547 1552 1542 1519 1515 1519 1514 1511 1506 1501 1501 1498 1497 1496 1496 1498 1500 1502
1467 1468 1470 1471 1472 1472 1473 1475 1477 1479 1480 1481 1483 1485 1486 1489 1490 1497 1510 1502 1481 1482 1488 1488 1491 1493 1493 1498 1501 1502 1502 1505 1506 1508 1511 1513 1514 1515 1515 1517 1517 1520 1523 1525 1528 1531 1531 1530 1530 1530 1531 1532 1534 1537 1537 1536 1536 1537 1539 1541 1543 1546 1546 1549 1551 1551 1556 1556 1550 1547 1545 1548 1544 1523 1513 1515 1510 1506 1503 1501 1501 1499 1497 1497 1496 1498 1500 1502
1466 1467 1469 1470 1471 1472 1473 1475 1477 1478 1480 1481 1483 1485 1487 1490 1492 1502 1507 1488 1476 1486 1489 1489 1492 1491 1492 1495 1499 1502 1503 1505 1506 1507 1511 1513 1514 1515 1515 1518 1519 1523 1528 1528 1531 1533 1531 1531 1531 1531 1531 1532 1533 1536 1537 1537 1537 1537 1540 1543 1546 1550 1551 1553 1556 1557 1559 1554 1548 1549 1549 1550 1548 1526 1509 1509 1506 1504 1503 1502 1501 1500 1499 1498 1498 1500 1501 1503
1465 1466 1468 1470 1470 1472 1473 1475 1476 1478 1480 1480 1482 1484 1486 1493 1497 1497 1491 1478 1477 1485 1485 1487 1490 1490 1492 1494 1497 1500 1502 1506 1507 1506 1509 1512 1514 1514 1514 1516 1517 1525 1533 1531 1533 1535 1533 1532 1532 1532 1532 1532 1532 1536 1541 1540 1538 1540 1541 1544 1550 1557 1560 1560 1561 1563 1561 1554 1549 1551 1550 1546 1538 1520 1508 1506 1503 1502 1503 1503 1502 1501 1500 1500 1501 1502 1502 1503
1465 1465 1467 1469 1470 1471 1473 1474 1476 1478 1479 1480 1483 1483 1486 1495 1495 1485 1480 1477 1478 1479 1479 1483 1486 1488 1492 1495 1497 1499 1500 1504 1505 1506 1508 1510 1513 1514 1513 1513 1512 1517 1525 1529 1534 1536 1536 1536 1534 1534 1533 1531 1530 1535 1542 1541 1540 1540 1539 1542 1549 1559 1565 1563 1565 1566 1559 1552 1551 1552 1550 1540 1525 1512 1506 1502 1498 1499 1502 1502 1503 1502 1501 1502 1502 1503 1503 1503
1464 1465 1466 1467 1469 1471 1472 1474 1476 1478 1479 1480 1482 1484 1489 1492 1484 1476 1478 1478 1476 1476 1478 1481 1485 1489 1492 1493 1496 1496 1499 1504 1504 1505 1508 1510 1514 1515 1513 1513 1513 1513 1517 1527 1533 1534 1536 1536 1532 1530 1529 1528 1528 1529 1531 1534 1537 1538 1537 1538 1542 1547 1553 1555 1557 1557 1551 1550 1553 1554 1547 1532 1517 1507 1502 1500 1499 1500 1500 1501 1503 1502 1502 1503 1502 1503 1503 1503
1463 1464 1465 1466 1468 1470 1471 1474 1475 1477 1479 1480 1482 1486 1488 1484 1477 1474 1477 1476 1475 1477 1479 1480 1485 1492 1494 1493 1494 1493 1496 1502 1504 1504 1507 1509 1511 1512 1511 1511 1511 1511 1514 1523 1530 1531 1534 1530 1524 1524 1523 1522 1525 1525 1525 1530 1536 1539 1537 1539 1540 1537 1538 1546 1552 1550 1550 1553 1552 1549 1539 1523 1513 1504 1499 1500 1499 1498 1498 1499 1501 1501 1502 1503 1503 1503 1503 1503
1462 1463 1465 1466 1467 1469 1471 1473 1475 1477 1479 1480 1483 1485 1481 1475 1474 1474 1473 1472 1474 1476 1480 1485 1487 1492 1496 1495 1495 1494 1493 1498 1502 1505 1507 1508 1508 1508 1507 1505 1505 1507 1509 1514 1522 1527 1531 1529 1524 1524 1523 1522 1524 1524 1525 1528 1532 1537 1538 1537 1536 1534 1533 1541 1552 1553 1554 1553 1547 1541 1531 1519 1514 1506 1497 1498 1498 1496 1498 1497 1497 1499 1500 1502 1503 1503 1503 1503
1462 1463 1464 1465 1467 1469 1471 1473 1476 1478 1479 1480 1482 1481 1476 1474 1474 1473 1471 1471 1472 1472 1478 1486 1487 1489 1494 1495 1495 1494 1493 1496 1501 1503 1506 1508 1505 1503 1504 1502 1501 1503 1503 1506 1512 1515 1520 1526 1526 1525 1525 1525 1524 1524 1526 1525 1527 1533 1537 1533 1531 1536 1536 1538 1548 1554 1557 1555 1545 1536 1528 1521 1521 1512 1497 1497 1499 1498 1498 1496 1496 1497 1499 1501 1502 1503 1503 1502
1461 1463 1464 1465 1467 1468 1470 1473 1475 1477 1479 1483 1484 1480 1477 1476 1473 1473 1473 1472 1472 1472 1476 1482 1483 1484 1488 1492 1493 1492 1492 1495 1500 1501 1503 1506 1501 1496 1498 1499 1498 1500 1500 1503 1508 1508 1511 1521 1527 1528 1527 1526 1525 1525 1528 1527 1526 1528 1530 1529 1531 1538 1541 1541 1546 1550 1554 1557 1544 1531 1527 1522 1517 1510 1500 1497 1499 1497 1495 1495 1496 1497 1499 1501 1502 1502 1501 1500
1461 1463 1464 1465 1467 1468 1470 1472 1474 1476 1479 1485 1486 1481 1476 1475 1473 1473 1474 1474 1474 1474 1474 1476 1478 1481 1485 1486 1488 1490 1490 1492 1497 1499 1500 1502 1499 1492 1492 1494 1495 1497 1498 1501 1505 1506 1508 1516 1525 1529 1528 1527 1526 1526 1529 1529 1528 1528 1528 1530 1531 1534 1537 1538 1541 1543 1546 1552 1545 1532 1528 1517 1504 1502 1500 1498 1496 1494 1495 1496 1497 1499 1501 1501 1500 1499 1499 1499
1461 1462 1463 1464 1466 1468 1469 1471 1473 1475 1478 1481 1482 1478 1475 1474 1472 1471 1472 1475 1476 1476 1477 1476 1475 1478 1481 1483 1484 1487 1488 1490 1493 1496 1495 1496 1496 1492 1490 1491 1492 1494 1497 1499 1502 1504 1508 1512 1520 1529 1530 1529 1526 1523 1524 1525 1526 1527 1529 1532 1532 1533 1536 1536 1537 1537 1537 1543 1545 1540 1531 1512 1496 1495 1494 1493 1495 1494 1496 1498 1498 1499 1499 1499 1498 1498 1498 1499
1461 1462 1463 1463 1464 1466 1468 1470 1471 1473 1475 1476 1477 1476 1475 1474 1472 1470 1471 1475 1477 1477 1478 1477 1476 1476 1477 1481 1483 1483 1486 1490 1492 1493 1492 1492 1493 1491 1489 1488 1489 1492 1495 1500 1501 1502 1507 1511 1519 1529 1530 1526 1521 1517 1518 1518 1518 1520 1522 1525 1525 1528 1534 1538 1540 1538 1533 1534 1536 1539 1532 1506 1489 1491 1490 1491 1495 1494 1495 1496 1495 1497 1496 1496 1496 1496 1497 1497
1460 1462 1462 1462 1463 1465 1467 1470 1470 1471 1472 1473 1472 1472 1473 1474 1472 1471 1471 1474 1476 1477 1478 1478 1478 1477 1476 1478 1481 1481 1484 1488 1490 1490 1490 1489 1489 1489 1488 1487 1487 1489 1492 1498 1499 1498 1502 1510 1517 1523 1524 1521 1517 1516 1518 1517 1516 1518 1519 1520 1521 1523 1526 1531 1537 1536 1534 1533 1530 1537 1533 1501 1481 1488 1490 1490 1493 1492 1493 1494 1493 1495 1495 1495 1496 1496 1498 1499
1459 1460 1461 1461 1462 1464 1467 1470 1470 1470 1469 1468 1468 1469 1471 1472 1472 1471 1471 1473 1475 1476 1477 1478 1477 1477 1477 1478 1479 1480 1482 1485 1489 1489 1488 1488 1488 1487 1487 1486 1486 1487 1489 1494 1497 1496 1500 1507 1513 1519 1521 1519 1517 1517 1517 1517 1518 1520 1519 1519 1522 1523 1521 1523 1528 1530 1531 1531 1528 1537 1536 1501 1479 1486 1489 1488 1490 1490 1492 1494 1494 1496 1497 1498 1500 1500 1501 1501
1459 1460 1460 1461 1462 1463 1465 1466 1466 1467 1467 1466 1467 1468 1469 1470 1469 1470 1471 1472 1473 1474 1476 1477 1476 1476 1477 1478 1479 1479 1480 1484 1488 1488 1487 1489 1487 1486 1486 1486 1485 1487 1489 1491 1493 1494 1499 1504 1510 1518 1523 1524 1523 1523 1521 1520 1520 1520 1518 1519 1519 1519 1522 1524 1526 1529 1531 1528 1525 1533 1531 1501 1481 1486 1488 1488 1491 1492 1494 1496 1496 1498 1499 1500 1501 1501 1501 1501
1459 1460 1460 1460 1461 1462 1462 1462 1462 1464 1466 1466 1467 1466 1467 1468 1467 1468 1469 1470 1471 1473 1474 1475 1474 1475 1478 1480 1480 1481 1480 1481 1484 1487 1488 1488 1487 1486 1486 1486 1486 1487 1488 1490 1490 1491 1497 1502 1505 1512 1520 1523 1523 1523 1521 1518 1519 1519 1516 1516 1516 1517 1521 1522 1526 1531 1531 1524 1522 1525 1520 1499 1483 1485 1490 1491 1493 1496 1496 1497 1497 1498 1499 1499 1500 1500 1500 1500
1458 1459 1459 1460 1461 1461 1460 1460 1461 1463 1464 1465 1466 1465 1466 1467 1466 1466 1467 1469 1470 1471 1472 1473 1473 1475 1480 1482 1483 1483 1482 1481 1483 1486 1488 1488 1488 1487 1486 1486 1487 1488 1489 1491 1490 1492 1498 1502 1501 1503 1508 1510 1512 1514 1514 1512 1514 1516 1514 1514 1517 1518 1518 1519 1523 1526 1523 1521 1521 1517 1511 1501 1486 1481 1487 1491 1495 1498 1497 1496 1497 1497 1497 1497 1498 1498 1498 1498
1457 1457 1456 1458 1459 1460 1460 1460 1461 1462 1461 1463 1464 1462 1463 1466 1465 1466 1467 1467 1468 1470 1471 1472 1472 1475 1478 1480 1482 1482 1482 1482 1484 1486 1488 1488 1489 1489 1488 1488 1488 1489 1490 1491 1491 1494 1499 1502 1501 1502 1504 1505 1506 1509 1510 1511 1512 1513 1514 1515 1517 1519 1519 1520 1519 1515 1514 1520 1519 1508 1506 1507 1493 1480 1482 1489 1495 1497 1495 1495 1495 1495 1496 1496 1496 1496 1495 1495
1456 1455 1452 1454 1455 1456 1457 1457 1457 1460 1461 1462 1461 1459 1461 1464 1464 1465 1465 1465 1466 1468 1470 1472 1471 1471 1472 1475 1478 1480 1482 1484 1486 1486 1485 1487 1489 1490 1491 1491 1490 1490 1490 1492 1493 1494 1499 1502 1501 1502 1504 1504 1506 1507 1509 1511 1512 1512 1513 1515 1516 1518 1519 1519 1516 1511 1512 1516 1510 1502 1505 1507 1496 1483 1480 1484 1492 1495 1493 1493 1493 1493 1493 1493 1493 1493 1491 1490
1454 1453 1452 1452 1452 1451 1452 1453 1455 1458 1461 1461 1461 1459 1459 1460 1461 1461 1462 1464 1466 1467 1468 1470 1469 1469 1470 1472 1474 1477 1480 1482 1484 1483 1483 1486 1487 1488 1491 1492 1492 1491 1491 1493 1494 1494 1498 1502 1502 1503 1505 1504 1504 1506 1507 1509 1512 1512 1512 1513 1514 1515 1515 1514 1513 1511 1512 1513 1507 1504 1506 1502 1492 1487 1482 1481 1487 1492 1492 1491 1489 1487 1489 1490 1490 1490 1488 1487
1452 1453 1452 1452 1451 1450 1451 1452 1454 1458 1460 1461 1461 1459 1457 1456 1457 1458 1458 1461 1464 1465 1465 1466 1466 1466 1469 1470 1471 1473 1473 1474 1477 1478 1480 1484 1485 1485 1487 1488 1489 1492 1493 1494 1495 1495 1498 1502 1503 1505 1509 1507 1502 1503 1506 1509 1510 1511 1512 1512 1512 1512 1510 1510 1511 1511 1513 1512 1507 1506 1507 1499 1488 1488 1487 1480 1480 1486 1489 1487 1484 1483 1485 1487 1488 1487 1485 1483
1451 1452 1452 1452 1452 1450 1451 1452 1453 1456 1458 1459 1458 1456 1455 1454 1454 1456 1457 1457 1459 1461 1462 1462 1463 1465 1468 1469 1470 1471 1470 1471 1473 1474 1475 1478 1480 1480 1482 1483 1484 1489 1492 1493 1495 1495 1498 1503 1505 1507 1511 1507 1500 1502 1507 1509 1511 1514 1513 1509 1507 1508 1506 1504 1504 1506 1507 1506 1504 1507 1507 1495 1483 1486 1489 1482 1478 1481 1484 1483 1481 1479 1481 1485 1486 1485 1482 1480
1449 1451 1451 1453 1453 1451 1450 1451 1452 1454 1453 1451 1450 1450 1452 1453 1452 1454 1457 1456 1455 1457 1458 1459 1462 1465 1467 1468 1468 1467 1469 1471 1472 1473 1474 1475 1477 1478 1480 1481 1482 1485 1488 1491 1493 1494 1496 1501 1504 1507 1508 1503 1498 1501 1506 1510 1515 1513 1503 1496 1498 1501 1500 1499 1499 1498 1496 1498 1501 1502 1496 1488 1483 1486 1487 1482 1478 1478 1478 1478 1477 1477 1480 1484 1484 1481 1479 1479